﻿測定場所 (Monitoring sites),日付 (Measurement date),時間 (Measurement time),線量率 最大値 (max) μGy/h,線量率 最小値 (min) μGy/h,線量率 平均値 (average) μGy/h,
小平 (Kodaira),2015-11-22,23:01～24:00,0.0349,0.0303,0.0322,
小平 (Kodaira),2015-11-22,22:01～23:00,0.0348,0.0298,0.0324,
小平 (Kodaira),2015-11-22,21:01～22:00,0.0351,0.0307,0.0325,
小平 (Kodaira),2015-11-22,20:01～21:00,0.0342,0.0302,0.0322,
小平 (Kodaira),2015-11-22,19:01～20:00,0.0346,0.0301,0.0321,
小平 (Kodaira),2015-11-22,18:01～19:00,0.0343,0.0293,0.0320,
小平 (Kodaira),2015-11-22,17:01～18:00,0.0340,0.0302,0.0319,
小平 (Kodaira),2015-11-22,16:01～17:00,0.0344,0.0301,0.0320,
小平 (Kodaira),2015-11-22,15:01～16:00,0.0338,0.0295,0.0320,
小平 (Kodaira),2015-11-22,14:01～15:00,0.0337,0.0302,0.0321,
小平 (Kodaira),2015-11-22,13:01～14:00,0.0343,0.0308,0.0323,
小平 (Kodaira),2015-11-22,12:01～13:00,0.0337,0.0302,0.0321,
小平 (Kodaira),2015-11-22,11:01～12:00,0.0341,0.0291,0.0322,
小平 (Kodaira),2015-11-22,10:01～11:00,0.0341,0.0303,0.0323,
小平 (Kodaira),2015-11-22,09:01～10:00,0.0348,0.0306,0.0323,
小平 (Kodaira),2015-11-22,08:01～09:00,0.0339,0.0302,0.0321,
小平 (Kodaira),2015-11-22,07:01～08:00,0.0345,0.0306,0.0323,
小平 (Kodaira),2015-11-22,06:01～07:00,0.0338,0.0299,0.0321,
小平 (Kodaira),2015-11-22,05:01～06:00,0.0341,0.0306,0.0323,
小平 (Kodaira),2015-11-22,04:01～05:00,0.0338,0.0300,0.0319,
小平 (Kodaira),2015-11-22,03:01～04:00,0.0345,0.0298,0.0319,
小平 (Kodaira),2015-11-22,02:01～03:00,0.0342,0.0300,0.0317,
小平 (Kodaira),2015-11-22,01:01～02:00,0.0341,0.0290,0.0319,
小平 (Kodaira),2015-11-22,00:01～01:00,0.0346,0.0295,0.0319,
小平 (Kodaira),2015-11-21,23:01～24:00,0.0338,0.0297,0.0318,
小平 (Kodaira),2015-11-21,22:01～23:00,0.0345,0.0287,0.0318,
小平 (Kodaira),2015-11-21,21:01～22:00,0.0344,0.0295,0.0321,
小平 (Kodaira),2015-11-21,20:01～21:00,0.0339,0.0290,0.0318,
小平 (Kodaira),2015-11-21,19:01～20:00,0.0341,0.0300,0.0320,
小平 (Kodaira),2015-11-21,18:01～19:00,0.0337,0.0300,0.0320,
小平 (Kodaira),2015-11-21,17:01～18:00,0.0336,0.0293,0.0314,
小平 (Kodaira),2015-11-21,16:01～17:00,0.0336,0.0294,0.0318,
小平 (Kodaira),2015-11-21,15:01～16:00,0.0338,0.0292,0.0316,
小平 (Kodaira),2015-11-21,14:01～15:00,0.0344,0.0292,0.0321,
小平 (Kodaira),2015-11-21,13:01～14:00,0.0332,0.0300,0.0318,
小平 (Kodaira),2015-11-21,12:01～13:00,0.0336,0.0303,0.0321,
小平 (Kodaira),2015-11-21,11:01～12:00,0.0346,0.0305,0.0318,
小平 (Kodaira),2015-11-21,10:01～11:00,0.0343,0.0300,0.0322,
小平 (Kodaira),2015-11-21,09:01～10:00,0.0354,0.0306,0.0333,
小平 (Kodaira),2015-11-21,08:01～09:00,0.0368,0.0301,0.0336,
小平 (Kodaira),2015-11-21,07:01～08:00,0.0355,0.0320,0.0338,
小平 (Kodaira),2015-11-21,06:01～07:00,0.0359,0.0324,0.0340,
小平 (Kodaira),2015-11-21,05:01～06:00,0.0374,0.0315,0.0341,
小平 (Kodaira),2015-11-21,04:01～05:00,0.0385,0.0315,0.0342,
小平 (Kodaira),2015-11-21,03:01～04:00,0.0362,0.0322,0.0341,
小平 (Kodaira),2015-11-21,02:01～03:00,0.0362,0.0316,0.0339,
小平 (Kodaira),2015-11-21,01:01～02:00,0.0364,0.0311,0.0334,
小平 (Kodaira),2015-11-21,00:01～01:00,0.0340,0.0300,0.0323,
小平 (Kodaira),2015-11-20,23:01～24:00,0.0345,0.0304,0.0324,
小平 (Kodaira),2015-11-20,22:01～23:00,0.0348,0.0299,0.0319,
小平 (Kodaira),2015-11-20,21:01～22:00,0.0344,0.0295,0.0315,
小平 (Kodaira),2015-11-20,20:01～21:00,0.0333,0.0291,0.0313,
小平 (Kodaira),2015-11-20,19:01～20:00,0.0337,0.0298,0.0315,
小平 (Kodaira),2015-11-20,18:01～19:00,0.0333,0.0288,0.0312,
小平 (Kodaira),2015-11-20,17:01～18:00,0.0335,0.0292,0.0315,
小平 (Kodaira),2015-11-20,16:01～17:00,0.0331,0.0292,0.0314,
小平 (Kodaira),2015-11-20,15:01～16:00,0.0344,0.0299,0.0318,
小平 (Kodaira),2015-11-20,14:01～15:00,0.0339,0.0297,0.0318,
小平 (Kodaira),2015-11-20,13:01～14:00,0.0336,0.0293,0.0313,
小平 (Kodaira),2015-11-20,12:01～13:00,0.0332,0.0300,0.0315,
小平 (Kodaira),2015-11-20,11:01～12:00,0.0338,0.0298,0.0316,
小平 (Kodaira),2015-11-20,10:01～11:00,0.0337,0.0297,0.0317,
小平 (Kodaira),2015-11-20,09:01～10:00,0.0345,0.0294,0.0316,
小平 (Kodaira),2015-11-20,08:01～09:00,0.0340,0.0297,0.0318,
小平 (Kodaira),2015-11-20,07:01～08:00,0.0344,0.0302,0.0318,
小平 (Kodaira),2015-11-20,06:01～07:00,0.0338,0.0294,0.0318,
小平 (Kodaira),2015-11-20,05:01～06:00,0.0336,0.0299,0.0319,
小平 (Kodaira),2015-11-20,04:01～05:00,0.0338,0.0296,0.0319,
小平 (Kodaira),2015-11-20,03:01～04:00,0.0342,0.0297,0.0317,
小平 (Kodaira),2015-11-20,02:01～03:00,0.0333,0.0295,0.0314,
小平 (Kodaira),2015-11-20,01:01～02:00,0.0330,0.0297,0.0314,
小平 (Kodaira),2015-11-20,00:01～01:00,0.0325,0.0289,0.0310,
小平 (Kodaira),2015-11-19,23:01～24:00,0.0329,0.0294,0.0314,
小平 (Kodaira),2015-11-19,22:01～23:00,0.0334,0.0287,0.0308,
小平 (Kodaira),2015-11-19,21:01～22:00,0.0335,0.0292,0.0312,
小平 (Kodaira),2015-11-19,20:01～21:00,0.0331,0.0297,0.0312,
小平 (Kodaira),2015-11-19,19:01～20:00,0.0325,0.0294,0.0312,
小平 (Kodaira),2015-11-19,18:01～19:00,0.0331,0.0300,0.0317,
小平 (Kodaira),2015-11-19,17:01～18:00,0.0336,0.0296,0.0316,
小平 (Kodaira),2015-11-19,16:01～17:00,0.0347,0.0294,0.0318,
小平 (Kodaira),2015-11-19,15:01～16:00,0.0333,0.0298,0.0315,
小平 (Kodaira),2015-11-19,14:01～15:00,0.0338,0.0300,0.0319,
小平 (Kodaira),2015-11-19,13:01～14:00,0.0335,0.0300,0.0318,
小平 (Kodaira),2015-11-19,12:01～13:00,0.0338,0.0303,0.0320,
小平 (Kodaira),2015-11-19,11:01～12:00,0.0343,0.0300,0.0319,
小平 (Kodaira),2015-11-19,10:01～11:00,0.0351,0.0291,0.0317,
小平 (Kodaira),2015-11-19,09:01～10:00,0.0341,0.0299,0.0320,
小平 (Kodaira),2015-11-19,08:01～09:00,0.0346,0.0294,0.0320,
小平 (Kodaira),2015-11-19,07:01～08:00,0.0339,0.0301,0.0319,
小平 (Kodaira),2015-11-19,06:01～07:00,0.0368,0.0309,0.0338,
小平 (Kodaira),2015-11-19,05:01～06:00,0.0455,0.0332,0.0387,
小平 (Kodaira),2015-11-19,04:01～05:00,0.0493,0.0363,0.0432,
小平 (Kodaira),2015-11-19,03:01～04:00,0.0525,0.0376,0.0442,
小平 (Kodaira),2015-11-19,02:01～03:00,0.0560,0.0464,0.0506,
小平 (Kodaira),2015-11-19,01:01～02:00,0.0545,0.0457,0.0501,
小平 (Kodaira),2015-11-19,00:01～01:00,0.0544,0.0449,0.0498,
小平 (Kodaira),2015-11-18,23:01～24:00,0.0551,0.0423,0.0477,
小平 (Kodaira),2015-11-18,22:01～23:00,0.0504,0.0418,0.0452,
小平 (Kodaira),2015-11-18,21:01～22:00,0.0477,0.0342,0.0413,
小平 (Kodaira),2015-11-18,20:01～21:00,0.0452,0.0341,0.0392,
小平 (Kodaira),2015-11-18,19:01～20:00,0.0494,0.0389,0.0441,
小平 (Kodaira),2015-11-18,18:01～19:00,0.0494,0.0386,0.0439,
小平 (Kodaira),2015-11-18,17:01～18:00,0.0472,0.0391,0.0434,
小平 (Kodaira),2015-11-18,16:01～17:00,0.0436,0.0360,0.0402,
小平 (Kodaira),2015-11-18,15:01～16:00,0.0413,0.0344,0.0373,
小平 (Kodaira),2015-11-18,14:01～15:00,0.0398,0.0301,0.0340,
小平 (Kodaira),2015-11-18,13:01～14:00,0.0335,0.0298,0.0316,
小平 (Kodaira),2015-11-18,12:01～13:00,0.0349,0.0302,0.0321,
小平 (Kodaira),2015-11-18,11:01～12:00,0.0349,0.0305,0.0326,
小平 (Kodaira),2015-11-18,10:01～11:00,0.0348,0.0301,0.0325,
小平 (Kodaira),2015-11-18,09:01～10:00,0.0351,0.0314,0.0333,
小平 (Kodaira),2015-11-18,08:01～09:00,0.0352,0.0306,0.0332,
小平 (Kodaira),2015-11-18,07:01～08:00,0.0346,0.0308,0.0326,
小平 (Kodaira),2015-11-18,06:01～07:00,0.0341,0.0305,0.0322,
小平 (Kodaira),2015-11-18,05:01～06:00,0.0346,0.0303,0.0321,
小平 (Kodaira),2015-11-18,04:01～05:00,0.0337,0.0299,0.0321,
小平 (Kodaira),2015-11-18,03:01～04:00,0.0359,0.0311,0.0326,
小平 (Kodaira),2015-11-18,02:01～03:00,0.0359,0.0313,0.0334,
小平 (Kodaira),2015-11-18,01:01～02:00,0.0407,0.0318,0.0356,
小平 (Kodaira),2015-11-18,00:01～01:00,0.0452,0.0364,0.0415,
小平 (Kodaira),2015-11-17,23:01～24:00,0.0463,0.0376,0.0419,
小平 (Kodaira),2015-11-17,22:01～23:00,0.0438,0.0350,0.0391,
小平 (Kodaira),2015-11-17,21:01～22:00,0.0395,0.0327,0.0363,
小平 (Kodaira),2015-11-17,20:01～21:00,0.0378,0.0338,0.0357,
小平 (Kodaira),2015-11-17,19:01～20:00,0.0376,0.0332,0.0351,
小平 (Kodaira),2015-11-17,18:01～19:00,0.0349,0.0297,0.0322,
小平 (Kodaira),2015-11-17,17:01～18:00,0.0342,0.0290,0.0318,
小平 (Kodaira),2015-11-17,16:01～17:00,0.0337,0.0299,0.0317,
小平 (Kodaira),2015-11-17,15:01～16:00,0.0343,0.0299,0.0321,
小平 (Kodaira),2015-11-17,14:01～15:00,0.0345,0.0298,0.0317,
小平 (Kodaira),2015-11-17,13:01～14:00,0.0329,0.0294,0.0313,
小平 (Kodaira),2015-11-17,12:01～13:00,0.0328,0.0292,0.0312,
小平 (Kodaira),2015-11-17,11:01～12:00,0.0335,0.0294,0.0315,
小平 (Kodaira),2015-11-17,10:01～11:00,0.0340,0.0294,0.0314,
小平 (Kodaira),2015-11-17,09:01～10:00,0.0336,0.0296,0.0313,
小平 (Kodaira),2015-11-17,08:01～09:00,0.0345,0.0292,0.0315,
小平 (Kodaira),2015-11-17,07:01～08:00,0.0339,0.0296,0.0317,
小平 (Kodaira),2015-11-17,06:01～07:00,0.0341,0.0297,0.0316,
小平 (Kodaira),2015-11-17,05:01～06:00,0.0334,0.0295,0.0314,
小平 (Kodaira),2015-11-17,04:01～05:00,0.0331,0.0294,0.0311,
小平 (Kodaira),2015-11-17,03:01～04:00,0.0339,0.0295,0.0313,
小平 (Kodaira),2015-11-17,02:01～03:00,0.0338,0.0298,0.0317,
小平 (Kodaira),2015-11-17,01:01～02:00,0.0343,0.0290,0.0319,
小平 (Kodaira),2015-11-17,00:01～01:00,0.0348,0.0300,0.0324,
小平 (Kodaira),2015-11-16,23:01～24:00,0.0354,0.0309,0.0328,
小平 (Kodaira),2015-11-16,22:01～23:00,0.0342,0.0289,0.0318,
小平 (Kodaira),2015-11-16,21:01～22:00,0.0332,0.0296,0.0313,
小平 (Kodaira),2015-11-16,20:01～21:00,0.0335,0.0293,0.0310,
小平 (Kodaira),2015-11-16,19:01～20:00,0.0334,0.0290,0.0312,
小平 (Kodaira),2015-11-16,18:01～19:00,0.0330,0.0290,0.0311,
小平 (Kodaira),2015-11-16,17:01～18:00,0.0330,0.0295,0.0310,
小平 (Kodaira),2015-11-16,16:01～17:00,0.0338,0.0286,0.0310,
小平 (Kodaira),2015-11-16,15:01～16:00,0.0331,0.0291,0.0311,
小平 (Kodaira),2015-11-16,14:01～15:00,0.0339,0.0294,0.0312,
小平 (Kodaira),2015-11-16,13:01～14:00,0.0337,0.0294,0.0315,
小平 (Kodaira),2015-11-16,12:01～13:00,0.0336,0.0288,0.0314,
小平 (Kodaira),2015-11-16,11:01～12:00,0.0336,0.0296,0.0315,
小平 (Kodaira),2015-11-16,10:01～11:00,0.0331,0.0286,0.0312,
小平 (Kodaira),2015-11-16,09:01～10:00,0.0341,0.0290,0.0317,
小平 (Kodaira),2015-11-16,08:01～09:00,0.0338,0.0299,0.0319,
小平 (Kodaira),2015-11-16,07:01～08:00,0.0341,0.0297,0.0322,
小平 (Kodaira),2015-11-16,06:01～07:00,0.0331,0.0293,0.0315,
小平 (Kodaira),2015-11-16,05:01～06:00,0.0340,0.0296,0.0316,
小平 (Kodaira),2015-11-16,04:01～05:00,0.0346,0.0304,0.0320,
小平 (Kodaira),2015-11-16,03:01～04:00,0.0349,0.0297,0.0317,
小平 (Kodaira),2015-11-16,02:01～03:00,0.0337,0.0294,0.0317,
小平 (Kodaira),2015-11-16,01:01～02:00,0.0331,0.0296,0.0312,
小平 (Kodaira),2015-11-16,00:01～01:00,0.0334,0.0300,0.0315,
